Retour au catalogue

COSMOS 1275 DEB

ActifPO
NORAD 13804·DEBRIS·🇷🇺 Russia

Lancé Jun 4, 1981 depuis Plesetsk Cosmodrome

Loading…

Prochains Passages (prochaines 24 heures)

TLE

FraisSource: Space-Track

Époque: Sep 14, 2026, 22:38 UTC

1 13804U 81053GY  26257.94308252  .00004095  00000-0  13618-2 0  9997
2 13804  82.9438 159.1102 0037258 103.9638  24.0864 14.37118371233699

Suivez COSMOS 1275 DEB en temps réel avec AllMySat

Download on the App Store